Weather History for KEKN - December, 2011

Change the Weather History Date:

Thursday, December 22, 2011

  Actual Average Record
Temperature  
Mean Temperature 45 °F 31 °F  
Max Temperature 54 °F 41 °F 71 °F (2013)
Min Temperature 35 °F 21 °F -19 °F (1989)
Degree Days  
Heating Degree Days 20 34  
Month to date heating degree days 599 694  
Since 1 July heating degree days 1701 1978  
Cooling Degree Days 0 0  
Month to date cooling degree days 0 0  
Year to date cooling degree days 699 475  
Moisture  
Dew Point 41 °F    
Average Humidity 76    
Maximum Humidity 93    
Minimum Humidity 59    
Precipitation  
Precipitation 0.45 in 0.10 in 1.20 in (1970)
Month to date precipitation 2.78 2.37  
Year to date precipitation 51.37 45.04  
Snow  
Snow 0.00 in - - ()
Month to date snowfall 4.7  
Since 1 September snowfall 6.3  
Snow Depth 0.00 in    
Sea Level Pressure  
Sea Level Pressure 30.00 in    
Wind  
Wind Speed 1 mph (WNW)    
Max Wind Speed 14 mph    
Max Gust Speed 25 mph    
Visibility 7 miles    
Events Rain    
T = Trace of Precipitation, MM = Missing Value Source: NWS Daily Summary

Daily Weather History Graph

Daily Weather History Graph

Search for Another Location

Airport or City:

Trip Planner

Search our weather history database for the weather conditions in past years. The results will help you decide how hot, cold, wet, or windy it might be!

Date:

Astronomy

Dec. 22, 2011 Rise Set
Actual Time 7:34 AM EST 5:01 PM EST
Civil Twilight 7:04 AM EST 5:31 PM EST
Nautical Twilight 6:31 AM EST 6:04 PM EST
Astronomical Twilight 5:58 AM EST 6:37 PM EST
Moon 5:16 AM EST (12/22) 3:09 PM EST (12/22)
Length of Visible Light 10h 26m
Length of Day
9h 26m
Waning Crescent, 6% of the Moon is Illuminated
Dec 22
Waning Crescent
Dec 24
New
Jan 1
First Quarter
Jan 9
Full
Jan 16
Last Quarter

Hourly Weather History & Observations

Time (EST) Temp. Windchill Dew Point Humidity Pressure Visibility Wind Dir Wind Speed Gust Speed Precip Events Conditions
12:51 AM 45.0 °F - 39.9 °F 82% 30.02 in 10.0 mi Calm Calm - N/A   Overcast
1:07 AM 48.2 °F - 39.2 °F 71% 30.00 in 10.0 mi SW 6.9 mph - N/A   Overcast
1:51 AM 48.0 °F - 39.0 °F 71% 30.03 in 10.0 mi Calm Calm - N/A   Overcast
2:51 AM 44.1 °F 42.5 °F 39.0 °F 82% 30.06 in 10.0 mi SW 3.5 mph - N/A   Overcast
3:51 AM 39.9 °F - 37.0 °F 89% 30.06 in 10.0 mi Calm Calm - N/A   Overcast
4:51 AM 39.9 °F - 37.9 °F 93% 30.07 in 10.0 mi Calm Calm - N/A   Overcast
5:51 AM 39.0 °F 36.8 °F 37.0 °F 93% 30.11 in 10.0 mi NW 3.5 mph - N/A   Overcast
6:51 AM 37.9 °F - 36.0 °F 93% 30.14 in 10.0 mi Calm Calm - N/A   Overcast
7:51 AM 35.1 °F - 34.0 °F 96% 30.15 in 6.0 mi Calm Calm - N/A   Partly Cloudy
8:51 AM 37.9 °F - 35.1 °F 89% 30.15 in 7.0 mi Calm Calm - N/A   Clear
9:51 AM 42.1 °F - 37.9 °F 85% 30.11 in 10.0 mi Calm Calm - N/A   Clear
10:51 AM 46.9 °F - 39.0 °F 74% 30.10 in 10.0 mi Calm Calm - N/A   Clear
11:51 AM 48.9 °F - 41.0 °F 74% 30.14 in 10.0 mi Calm Calm - N/A   Clear
12:51 PM 52.0 °F - 42.1 °F 69% 30.09 in 10.0 mi NNW 4.6 mph - N/A   Clear
1:51 PM 52.0 °F - 41.0 °F 66% 30.06 in 10.0 mi Calm Calm - N/A   Clear
2:51 PM 53.1 °F - 39.9 °F 61% 30.05 in 10.0 mi Calm Calm - N/A   Clear
3:51 PM 53.1 °F - 39.0 °F 59% 30.02 in 10.0 mi Calm Calm - N/A   Clear
4:51 PM 48.9 °F - 39.0 °F 69% 30.00 in 10.0 mi Calm Calm - N/A   Clear
5:51 PM 45.0 °F - 39.0 °F 80% 29.95 in 10.0 mi Calm Calm - N/A   Partly Cloudy
6:51 PM 46.0 °F 44.8 °F 41.0 °F 83% 29.99 in 9.0 mi West 3.5 mph - 0.00 in Rain Light Rain
7:51 PM 46.0 °F 44.8 °F 43.0 °F 89% 29.97 in 2.5 mi West 3.5 mph - 0.09 in Rain Heavy Rain
8:06 PM 44.6 °F - 42.8 °F 93% 29.94 in 3.0 mi Calm Calm - 0.05 in Rain Rain
8:51 PM 46.0 °F - 44.1 °F 93% 29.97 in 4.0 mi Calm Calm - 0.16 in Rain Rain
9:19 PM 44.6 °F - 44.6 °F 100% 29.90 in 3.0 mi Calm Calm - 0.06 in Rain Rain
9:51 PM 46.0 °F 44.8 °F 44.1 °F 93% 29.90 in 5.0 mi SE 3.5 mph - 0.11 in Rain Light Rain
10:11 PM 44.6 °F 40.7 °F 44.6 °F 100% 29.87 in 4.0 mi West 6.9 mph - 0.02 in Rain Light Rain
10:51 PM 46.0 °F - 44.1 °F 93% 29.84 in 4.0 mi Calm Calm - 0.06 in Rain Light Rain
11:44 PM 46.4 °F 42.9 °F 44.6 °F 93% 29.82 in 3.0 mi NW 6.9 mph - 0.00 in Rain Light Rain
11:47 PM 46.4 °F 42.9 °F 44.6 °F 93% 29.84 in 2.5 mi NW 6.9 mph - 0.00 in Rain Rain
11:51 PM 46.0 °F 41.9 °F 44.1 °F 93% 29.87 in 2.5 mi NNW 8.1 mph - 0.01 in Rain Rain
11:54 PM 46.4 °F 40.7 °F 44.6 °F 93% 29.85 in 3.0 mi NW 12.7 mph 18.4 mph 0.01 in Rain Rain